TimeCST,TemperatureF,Dew PointF,Humidity,Sea Level PressureIn,VisibilityMPH,Wind Direction,Wind SpeedMPH,Gust SpeedMPH,PrecipitationIn,Events,Conditions,WindDirDegrees,DateUTC
12:35 AM,28.4,15.8,59,30.18,10.0,SSW,3.5,-,N/A,,Clear,200,2013-01-17 06:35:00
12:55 AM,26.6,15.8,64,30.19,10.0,SSW,3.5,-,N/A,,Clear,210,2013-01-17 06:55:00
1:15 AM,24.8,15.8,69,30.19,10.0,Calm,Calm,-,N/A,,Clear,0,2013-01-17 07:15:00
1:36 AM,26.6,15.8,64,30.19,10.0,West,3.5,-,N/A,,Clear,260,2013-01-17 07:36:00
1:55 AM,28.4,17.6,64,30.19,10.0,Calm,Calm,-,N/A,,Clear,0,2013-01-17 07:55:00
2:15 AM,26.6,19.4,74,30.20,10.0,Calm,Calm,-,N/A,,Clear,0,2013-01-17 08:15:00
2:55 AM,26.6,17.6,69,30.19,10.0,Calm,Calm,-,N/A,,Clear,0,2013-01-17 08:55:00
3:35 AM,26.6,19.4,74,30.20,10.0,Calm,Calm,-,N/A,,Clear,0,2013-01-17 09:35:00
3:55 AM,26.6,23.0,86,30.21,10.0,Calm,Calm,-,N/A,,Clear,0,2013-01-17 09:55:00
4:15 AM,28.4,19.4,69,30.22,10.0,NW,3.5,-,N/A,,Clear,320,2013-01-17 10:15:00
4:35 AM,30.2,17.6,60,30.22,10.0,NW,5.8,-,N/A,,Clear,320,2013-01-17 10:35:00
4:56 AM,30.2,17.6,60,30.23,10.0,NW,4.6,-,N/A,,Clear,310,2013-01-17 10:56:00
5:15 AM,30.2,17.6,60,30.24,10.0,NW,4.6,-,N/A,,Clear,320,2013-01-17 11:15:00
5:35 AM,28.4,17.6,64,30.25,10.0,NNW,3.5,-,N/A,,Clear,340,2013-01-17 11:35:00
6:15 AM,30.2,21.2,69,30.25,10.0,North,5.8,-,N/A,,Clear,350,2013-01-17 12:15:00
6:35 AM,30.2,21.2,69,30.27,10.0,North,5.8,-,N/A,,Clear,350,2013-01-17 12:35:00
6:55 AM,30.2,21.2,69,30.28,10.0,North,8.1,-,N/A,,Clear,360,2013-01-17 12:55:00
7:16 AM,30.2,23.0,75,30.28,10.0,North,8.1,-,N/A,,Clear,10,2013-01-17 13:16:00
7:35 AM,30.2,24.8,80,30.30,10.0,North,6.9,-,N/A,,Clear,360,2013-01-17 13:35:00
7:55 AM,30.2,24.8,80,30.31,10.0,North,5.8,-,N/A,,Clear,350,2013-01-17 13:55:00
8:15 AM,30.2,24.8,80,30.32,10.0,North,5.8,-,N/A,,Clear,360,2013-01-17 14:15:00
8:36 AM,32.0,26.6,80,30.34,10.0,North,8.1,-,N/A,,Clear,360,2013-01-17 14:36:00
9:15 AM,33.8,28.4,81,30.36,10.0,North,10.4,-,N/A,,Clear,10,2013-01-17 15:15:00
9:55 AM,37.4,28.4,70,30.37,10.0,NNE,11.5,-,N/A,,Clear,30,2013-01-17 15:55:00
10:15 AM,39.2,30.2,70,30.38,10.0,NNE,10.4,-,N/A,,Partly Cloudy,20,2013-01-17 16:15:00
10:35 AM,39.2,30.2,70,30.39,10.0,NNE,12.7,16.1,N/A,,Scattered Clouds,30,2013-01-17 16:35:00
10:55 AM,39.2,28.4,65,30.39,10.0,NNE,12.7,-,N/A,,Scattered Clouds,20,2013-01-17 16:55:00
11:35 AM,41.0,30.2,65,30.40,10.0,NE,8.1,-,N/A,,Clear,50,2013-01-17 17:35:00
11:55 AM,42.8,28.4,57,30.38,10.0,NNE,9.2,-,N/A,,Partly Cloudy,20,2013-01-17 17:55:00
12:15 PM,42.8,28.4,57,30.38,10.0,North,11.5,-,N/A,,Clear,360,2013-01-17 18:15:00
12:36 PM,44.6,28.4,53,30.38,10.0,North,11.5,-,N/A,,Clear,10,2013-01-17 18:36:00
12:55 PM,44.6,28.4,53,30.38,10.0,North,12.7,16.1,N/A,,Clear,10,2013-01-17 18:55:00
1:15 PM,44.6,28.4,53,30.38,10.0,NNE,6.9,18.4,N/A,,Clear,20,2013-01-17 19:15:00
1:55 PM,46.4,28.4,50,30.38,10.0,North,12.7,-,N/A,,Clear,360,2013-01-17 19:55:00
2:15 PM,46.4,28.4,50,30.38,10.0,North,11.5,-,N/A,,Clear,10,2013-01-17 20:15:00
2:35 PM,46.4,26.6,46,30.38,10.0,NNW,10.4,-,N/A,,Clear,340,2013-01-17 20:35:00
2:56 PM,46.4,28.4,50,30.38,10.0,NNE,11.5,-,N/A,,Clear,20,2013-01-17 20:56:00
3:15 PM,48.2,26.6,43,30.38,10.0,NNE,10.4,16.1,N/A,,Clear,20,2013-01-17 21:15:00
3:35 PM,46.4,26.6,46,30.39,10.0,NNE,9.2,-,N/A,,Clear,30,2013-01-17 21:35:00
3:56 PM,46.4,26.6,46,30.39,10.0,North,8.1,-,N/A,,Clear,360,2013-01-17 21:56:00
4:15 PM,46.4,26.6,46,30.40,10.0,NNE,8.1,-,N/A,,Clear,30,2013-01-17 22:15:00
4:35 PM,46.4,24.8,43,30.41,10.0,North,8.1,-,N/A,,Clear,10,2013-01-17 22:35:00
4:36 PM,46.4,24.8,43,30.41,10.0,NNE,8.1,-,N/A,,Clear,20,2013-01-17 22:36:00
4:55 PM,44.6,26.6,49,30.41,10.0,North,5.8,-,N/A,,Clear,360,2013-01-17 22:55:00
5:35 PM,42.8,24.8,49,30.42,10.0,North,5.8,-,N/A,,Clear,360,2013-01-17 23:35:00
5:55 PM,39.2,24.8,56,30.42,10.0,North,5.8,-,N/A,,Clear,10,2013-01-17 23:55:00
6:15 PM,39.2,24.8,56,30.43,10.0,North,5.8,-,N/A,,Clear,10,2013-01-18 00:15:00
6:35 PM,39.2,24.8,56,30.44,10.0,North,3.5,-,N/A,,Clear,10,2013-01-18 00:35:00
6:55 PM,39.2,24.8,56,30.44,10.0,NNE,4.6,-,N/A,,Clear,20,2013-01-18 00:55:00
7:15 PM,37.4,24.8,60,30.44,10.0,NNE,4.6,-,N/A,,Clear,30,2013-01-18 01:15:00
7:35 PM,37.4,24.8,60,30.44,10.0,NE,3.5,-,N/A,,Clear,40,2013-01-18 01:35:00
8:15 PM,35.6,23.0,60,30.44,10.0,Calm,Calm,-,N/A,,Clear,0,2013-01-18 02:15:00
8:55 PM,32.0,24.8,75,30.45,10.0,Calm,Calm,-,N/A,,Clear,0,2013-01-18 02:55:00
9:15 PM,30.2,23.0,75,30.45,10.0,Calm,Calm,-,N/A,,Clear,0,2013-01-18 03:15:00
9:35 PM,30.2,23.0,75,30.45,10.0,Calm,Calm,-,N/A,,Clear,0,2013-01-18 03:35:00
10:15 PM,30.2,23.0,75,30.45,10.0,Calm,Calm,-,N/A,,Clear,0,2013-01-18 04:15:00
10:35 PM,26.6,21.2,80,30.45,10.0,Calm,Calm,-,N/A,,Clear,0,2013-01-18 04:35:00
10:55 PM,28.4,24.8,86,30.46,10.0,Calm,Calm,-,N/A,,Clear,0,2013-01-18 04:55:00
11:15 PM,26.6,21.2,80,30.46,10.0,Calm,Calm,-,N/A,,Clear,0,2013-01-18 05:15:00
11:35 PM,28.4,24.8,86,30.46,10.0,Calm,Calm,-,N/A,,Clear,0,2013-01-18 05:35:00
11:55 PM,28.4,24.8,86,30.46,10.0,Calm,Calm,-,N/A,,Clear,0,2013-01-18 05:55:00